View from above orbital plane
|
View from above satellite
|
Ground track
|
The orbit data is extracted from the following two-line orbital elements,
1 00005U 58002B 21023.39494593 -.00000082 00000-0 -12710-3 0 9990
2 00005 34.2581 270.6849 1847832 262.1458 76.6548 10.84860138229140
Epoch (UTC): | 23 January 2021 09:28:43 |
Eccentricity: | 0.1847832 |
inclination: | 34.2581° |
perigee height: | 648 km |
apogee height: | 3834 km |
right ascension of ascending node: | 270.6849° |
argument of perigee: | 262.1458° |
revolutions per day: | 10.84860138 |
mean anomaly at epoch: | 76.6548° |
orbit number at epoch: | 22914 |
The dashed part of the orbit path shows where the satellite is in the earth's shadow,
|
|